Regional Weather Roundup
Issued by NWS

Home | Current Version | Previous Version | Graphics & Text | Print | Product List | Glossary On
Versions: 1 2 3 4 5 6 7 8 9 10 11 12 13 14 15 16 17 18 19 20 21 22 23 24 25 26 27 28 29 30 31 32 33 34 35 36 37 38 39 40 41 42 43 44 45 46 47 48 49 50
000
ASUS43 KLOT 240158
RWRIL

ILLINOIS REGIONAL WEATHER ROUNDUP
NATIONAL WEATHER SERVICE CHICAGO/ROMEOVILLE IL
900 PM CDT SAT JUL 23 2016

NOTE: "FAIR" INDICATES FEW OR NO CLOUDS BELOW 12,000 FEET WITH NO
SIGNIFICANT WEATHER AND/OR OBSTRUCTIONS TO VISIBILITY.

* THESE STATIONS ARE NOT UNDER NWS QUALITY CONTROL. THEY ALSO MAY NOT
  REPORT WEATHER SUCH AS PRECIPITATION OR FOG.

ILZ001-002-007-009-015-016-024-240300-
NORTHWEST ILLINOIS

CITY           SKY/WX    TMP DP  RH WIND       PRES   REMARKS
MOLINE         NOT AVBL
STERLING*      TSTM      75  72  88 NW3       29.96R
$$

ILZ003-004-008-010-011-017-018-240300-
NORTH CENTRAL ILLINOIS

CITY           SKY/WX    TMP DP  RH WIND       PRES   REMARKS
ROCKFORD       TSTM      74  71  91 S16       29.98R FOG
$$

ILZ005-006-012>014-019>023-240300-
NORTHEAST ILLINOIS

CITY           SKY/WX    TMP DP  RH WIND       PRES   REMARKS
CHICAGO-OHARE  CLOUDY    74  69  85 SE13      29.93F
CHICAGO-MIDWAY NOT AVBL
AURORA         NOT AVBL
WAUKEGAN       LGT RAIN  70  68  94 W14G24    30.00R FOG
DUPAGE AIRPORT NOT AVBL
WHEELING       NOT AVBL
NORTHERLY ISL    N/A     71  69  93 E10         N/A
$$

LMZ740>746-240300-
SOUTHERN LAKE MICHIGAN

STATION/POSITION SKY/WX   TEMP    WIND        PRES    VSBY  WAVE
                          AIR SEA DIR/SP/G                  HT/PER
                          (F)     (DEG/KT/KT) (MB)    (MI)  (FT/S)
SOUTHERN BUOY              77 76  130/  8/ 10 1013.4F         0
WILMETTE HARBOR            67 59  150/ 12/ 17   N/A           2/ 2
HARRISON CRIB              73      70/ 21/ 23   N/A
BURNHAM HARBOR             70      40/ 12/ 32   N/A
CALUMET HARBOR                     50/ 13/ 20   N/A
BURNS HARBOR               74     340/ 26     1015.2R
MICHIGAN CITY              74                   N/A
MICHIGAN CITY 6N           74 75  330/ 23/ 37   N/A           2/ 3
ST. JOSEPH                 78 76   20/ 10/ 14 1013.3F         1
$$

ILZ025>027-034>036-040-047-049-050-058-095>099-240300-
WEST-CENTRAL ILLINOIS

CITY           SKY/WX    TMP DP  RH WIND       PRES   REMARKS
$$

ILZ028>032-037-038-041>044-048-051>054-059>061-240300-
CENTRAL ILLINOIS

CITY           SKY/WX    TMP DP  RH WIND       PRES   REMARKS
PEORIA         NOT AVBL
SPRINGFIELD    NOT AVBL
TAYLORVILLE    NOT AVBL
$$

ILZ033-039-045-046-055>057-062-063-240300-
EAST-CENTRAL ILLINOIS

CITY           SKY/WX    TMP DP  RH WIND       PRES   REMARKS
$$

ILZ079-100>102-240300-
SOUTHWEST ILLINOIS

CITY           SKY/WX    TMP DP  RH WIND       PRES   REMARKS
ALTON          PTCLDY    81  75  83 SE6       29.93  HX  86
$$

ILZ064>066-069>071-074>076-080>082-084>086-088>090-092>094-240300-
SOUTH-CENTRAL ILLINOIS

CITY           SKY/WX    TMP DP  RH WIND       PRES   REMARKS
CARBONDALE     NOT AVBL
$$

ILZ067-068-072-073-078-083-087-091-240300-
SOUTHEAST ILLINOIS

CITY           SKY/WX    TMP DP  RH WIND       PRES   REMARKS
$$

ABBREVIATIONS USED IN REMARKS
   TC - TEMPERATURE IN CELSIUS
  WCI - WIND CHILL INDEX
   HX - HEAT INDEX
  VSB - VISIBILITY
$$




USA.gov is the U.S. government's official web portal to all federal, state and local government web resources and services.